TimeEDT,TemperatureF,Dew PointF,Humidity,Sea Level PressureIn,VisibilityMPH,Wind Direction,Wind SpeedMPH,Gust SpeedMPH,PrecipitationIn,Events,Conditions,WindDirDegrees,DateUTC
12:53 AM,28.9,18.0,64,30.14,10.0,SW,6.9,-,N/A,,Clear,230,2013-03-15 04:53:00
1:53 AM,28.0,19.0,69,30.13,10.0,SSW,8.1,-,N/A,,Clear,210,2013-03-15 05:53:00
2:53 AM,28.0,18.0,66,30.12,10.0,SSW,8.1,-,N/A,,Clear,210,2013-03-15 06:53:00
3:53 AM,28.0,18.0,66,30.10,10.0,SW,6.9,-,N/A,,Clear,220,2013-03-15 07:53:00
4:53 AM,28.0,18.0,66,30.07,10.0,SSW,9.2,-,N/A,,Clear,210,2013-03-15 08:53:00
5:53 AM,28.0,18.0,66,30.06,10.0,SSW,8.1,-,N/A,,Clear,200,2013-03-15 09:53:00
6:53 AM,28.0,18.0,66,30.06,10.0,SSW,10.4,-,N/A,,Scattered Clouds,210,2013-03-15 10:53:00
7:53 AM,30.0,19.0,64,30.04,10.0,SSW,11.5,-,N/A,,Overcast,210,2013-03-15 11:53:00
8:53 AM,30.9,19.0,61,30.02,10.0,SSW,10.4,-,N/A,,Overcast,210,2013-03-15 12:53:00
9:23 AM,32.0,19.4,60,29.97,10.0,SSW,12.7,-,N/A,,Overcast,210,2013-03-15 13:23:00
9:33 AM,32.0,19.4,60,29.97,10.0,SSW,10.4,-,N/A,,Overcast,210,2013-03-15 13:33:00
9:53 AM,34.0,19.9,56,30.01,10.0,SW,6.9,-,N/A,,Mostly Cloudy,230,2013-03-15 13:53:00
10:53 AM,37.0,24.1,59,29.99,10.0,SW,12.7,-,N/A,,Mostly Cloudy,220,2013-03-15 14:53:00
11:53 AM,39.0,26.1,60,29.97,10.0,SW,12.7,-,N/A,,Overcast,220,2013-03-15 15:53:00
12:43 PM,41.0,26.6,57,29.90,10.0,WSW,13.8,-,N/A,,Overcast,250,2013-03-15 16:43:00
12:53 PM,41.0,27.0,57,29.94,10.0,West,11.5,19.6,N/A,,Overcast,260,2013-03-15 16:53:00
1:53 PM,45.0,27.0,49,29.91,10.0,WSW,20.7,26.5,N/A,,Partly Cloudy,240,2013-03-15 17:53:00
2:53 PM,46.9,28.0,48,29.87,10.0,West,16.1,24.2,N/A,,Scattered Clouds,260,2013-03-15 18:53:00
3:53 PM,48.0,28.9,48,29.86,10.0,West,11.5,19.6,N/A,,Mostly Cloudy,270,2013-03-15 19:53:00
4:53 PM,48.0,28.9,48,29.85,10.0,West,13.8,21.9,N/A,,Mostly Cloudy,260,2013-03-15 20:53:00
5:53 PM,48.0,30.0,50,29.83,10.0,West,11.5,21.9,N/A,,Scattered Clouds,270,2013-03-15 21:53:00
6:53 PM,46.9,30.9,54,29.85,10.0,West,10.4,-,N/A,,Overcast,260,2013-03-15 22:53:00
7:53 PM,46.9,30.9,54,29.86,10.0,WNW,4.6,-,N/A,,Overcast,290,2013-03-15 23:53:00
8:53 PM,46.9,30.9,54,29.86,10.0,WNW,5.8,-,N/A,,Overcast,290,2013-03-16 00:53:00
9:53 PM,45.0,32.0,60,29.87,10.0,NNW,4.6,-,N/A,,Overcast,340,2013-03-16 01:53:00
10:53 PM,42.1,34.0,73,29.87,8.0,North,5.8,-,0.00,,Overcast,350,2013-03-16 02:53:00
11:53 PM,39.9,36.0,86,29.87,6.0,NNW,4.6,-,0.01,Rain,Light Rain,330,2013-03-16 03:53:00